FW4030 Weather Reports


Display with metric or nautical units.
time (UTC)temp
F
wind
direction
speed
MPH
gust
MPH
rain 1hr
in
rain 24hr
in
rain mn
in
humidity
%
barometer
mb
20260904211622 59 112 1.0 3.0 0.00 0.00 0.00 95 1026.0
20260904210621 59 112 1.0 2.0 0.00 0.00 0.00 95 1025.9
20260904204622 60 112 1.0 2.0 0.00 0.00 0.00 95 1025.7
20260904203721 60 112 2.0 2.0 0.00 0.00 0.00 95 1025.8
20260904203621 60 112 2.0 4.0 0.00 0.00 0.00 95 1025.7
20260904203522 60 117 3.0 5.0 0.00 0.00 0.00 95 1025.6
20260904202621 60 180 1.0 2.0 0.00 0.00 0.00 95 1025.4
20260904201622 60 180 0.0 3.0 0.00 0.00 0.00 95 1025.5
20260904200622 60 180 2.0 3.0 0.00 0.00 0.00 94 1025.4
20260904195624 60 112 3.0 5.0 0.00 0.00 0.00 95 1025.4
20260904195522 60 177 3.0 5.0 0.00 0.00 0.00 95 1025.5
20260904195439 61 180 1.0 2.0 0.00 0.00 0.00 95 1025.4
20260904194523 61 180 2.0 3.0 0.00 0.00 0.00 95 1025.3
20260904193622 61 180 2.0 4.0 0.00 0.00 0.00 95 1025.3
20260904191620 61 180 3.0 4.0 0.00 0.00 0.00 95 1025.0
20260904190624 61 180 5.0 6.0 0.00 0.00 0.00 95 1024.9
20260904185621 61 180 3.0 4.0 0.00 0.00 0.00 96 1024.6
20260904184622 61 180 4.0 7.0 0.00 0.00 0.00 96 1024.7
20260904183621 62 173 6.0 9.0 0.00 0.00 0.00 96 1024.4
20260904182623 62 180 4.0 6.0 0.00 0.00 0.00 96 1024.2
20260904181622 62 180 4.0 5.0 0.00 0.00 0.00 96 1024.2
20260904180720 63 114 2.0 4.0 0.00 0.00 0.00 96 1024.0
20260904180622 63 180 2.0 5.0 0.00 0.00 0.00 96 1023.8
20260904175622 63 162 3.0 5.0 0.00 0.00 0.00 96 1023.7
20260904174621 63 171 3.0 7.0 0.00 0.00 0.00 96 1023.7
20260904173622 63 180 3.0 4.0 0.00 0.00 0.00 96 1023.5
20260904172623 63 126 4.0 7.0 0.00 0.00 0.00 96 1023.3
20260904172521 63 173 3.0 5.0 0.00 0.00 0.00 96 1023.4
20260904172422 63 180 2.0 6.0 0.00 0.00 0.00 96 1023.3
20260904171520 63 112 3.0 6.0 0.00 0.00 0.00 96 1023.3
20260904170521 63 124 4.0 7.0 0.00 0.00 0.00 96 1023.2
20260904165523 63 130 2.0 6.0 0.00 0.00 0.00 96 1023.2
20260904164521 64 133 3.0 8.0 0.00 0.00 0.00 96 1022.8
20260904163522 64 128 3.0 6.0 0.00 0.00 0.00 96 1023.0
20260904162521 63 154 5.0 10.0 0.00 0.00 0.00 96 1023.1
20260904161521 63 160 6.0 10.0 0.00 0.00 0.00 96 1023.2
20260904155522 63 142 4.0 8.0 0.00 0.00 0.00 96 1022.8
20260904154522 63 114 4.0 7.0 0.00 0.00 0.00 96 1022.6
20260904154423 63 143 5.0 11.0 0.00 0.00 0.00 96 1022.6
20260904152422 63 130 5.0 8.0 0.00 0.00 0.00 96 1022.9
20260904150422 63 166 8.0 11.0 0.00 0.00 0.00 96 1022.8
20260904145422 63 147 3.0 7.0 0.00 0.00 0.00 96 1022.7
20260904145322 63 140 6.0 10.0 0.00 0.00 0.00 96 1022.8
20260904144324 63 159 5.0 10.0 0.00 0.00 0.00 96 1022.8
20260904143223 63 171 10.0 14.0 0.00 0.00 0.00 95 1022.7
20260904142222 63 169 9.0 14.0 0.00 0.00 0.00 95 1022.2
20260904141320 63 167 8.0 16.0 0.00 0.00 0.00 95 1022.4
20260904141221 63 173 7.0 12.0 0.00 0.00 0.00 94 1022.5
20260904140321 64 175 8.0 11.0 0.00 0.00 0.00 93 1022.2
20260904140225 64 175 9.0 16.0 0.00 0.00 0.00 93 1022.2
20260904135321 66 175 10.0 18.0 0.00 0.00 0.00 93 1022.0
20260904134323 68 177 11.0 17.0 0.00 0.00 0.00 93 1021.8
20260904133323 68 168 6.0 11.0 0.00 0.00 0.00 93 1021.2
20260904132420 69 145 8.0 12.0 0.00 0.00 0.00 92 1021.1
20260904132324 69 164 10.0 14.0 0.00 0.00 0.00 92 1021.3
20260904131321 69 137 5.0 8.0 0.00 0.00 0.00 91 1021.1
20260904130323 69 159 7.0 17.0 0.00 0.00 0.00 91 1021.0
20260904125323 70 116 7.0 11.0 0.00 0.00 0.00 91 1021.0
20260904124323 70 118 4.0 9.0 0.00 0.00 0.00 91 1021.0
20260904124221 70 120 7.0 13.0 0.00 0.00 0.00 91 1021.0
20260904123222 69 118 8.0 14.0 0.00 0.00 0.00 90 1021.1
20260904115422 69 124 5.0 9.0 0.00 0.00 0.00 87 1021.1
20260904114422 70 121 6.0 9.0 0.00 0.00 0.00 84 1021.2
20260904114323 70 128 7.0 13.0 0.00 0.00 0.00 84 1021.4
20260904113322 72 160 7.0 11.0 0.00 0.00 0.00 81 1021.2
20260904112322 72 128 6.0 13.0 0.00 0.00 0.00 81 1021.0
20260904111322 72 140 6.0 12.0 0.00 0.00 0.00 81 1021.3
20260904105422 71 126 4.0 11.0 0.00 0.00 0.00 82 1021.4
20260904104422 71 124 7.0 16.0 0.00 0.00 0.00 81 1021.4
20260904103521 71 123 7.0 12.0 0.00 0.00 0.00 80 1021.4
20260904102521 71 119 9.0 12.0 0.00 0.00 0.00 80 1021.3
20260904102424 71 114 9.0 15.0 0.00 0.00 0.00 81 1021.5
20260904101424 71 117 8.0 13.0 0.00 0.00 0.00 80 1021.3
20260904095422 72 121 8.0 14.0 0.00 0.00 0.00 79 1021.1
20260904094423 72 146 8.0 14.0 0.00 0.00 0.00 79 1021.3
20260904093421 72 129 7.0 13.0 0.00 0.00 0.00 79 1021.2
20260904091422 73 117 11.0 15.0 0.00 0.00 0.00 79 1021.3
20260904090421 73 118 9.0 14.0 0.00 0.00 0.00 80 1021.1
20260904090323 72 126 7.0 15.0 0.00 0.00 0.00 80 1021.2
20260904085321 72 127 10.0 19.0 0.00 0.00 0.00 82 1021.3
20260904083324 71 124 10.0 16.0 0.00 0.00 0.00 84 1021.6
20260904082420 71 127 5.0 9.0 0.00 0.00 0.00 84 1021.7
20260904081422 70 123 13.0 24.0 0.00 0.00 0.00 84 1021.8
20260904075422 70 116 4.0 7.0 0.00 0.00 0.00 84 1021.9
20260904074422 70 116 6.0 10.0 0.00 0.00 0.00 84 1021.9
20260904073423 70 122 5.0 11.0 0.00 0.00 0.00 85 1022.0
20260904072424 69 114 7.0 12.0 0.00 0.00 0.00 85 1022.0
20260904071421 69 113 8.0 11.0 0.00 0.00 0.00 86 1022.1
20260904070421 69 118 11.0 18.0 0.00 0.00 0.00 87 1022.2
20260904065323 68 115 5.0 9.0 0.00 0.00 0.00 87 1022.3
20260904064322 68 127 6.0 11.0 0.00 0.00 0.00 88 1022.2
20260904063420 68 114 7.0 14.0 0.00 0.00 0.00 88 1022.4
20260904062423 68 124 8.0 12.0 0.00 0.00 0.00 89 1022.5
20260904061521 68 118 7.0 12.0 0.00 0.00 0.00 89 1022.7
20260904055521 67 126 6.0 14.0 0.00 0.00 0.00 90 1022.9
20260904054524 67 122 6.0 9.0 0.00 0.00 0.00 90 1022.9
20260904051522 67 114 6.0 9.0 0.00 0.00 0.00 90 1023.4
20260904050522 67 116 6.0 9.0 0.00 0.00 0.00 90 1023.5
20260904050424 67 117 7.0 11.0 0.00 0.00 0.00 90 1023.5
20260904045422 67 114 6.0 10.0 0.00 0.00 0.00 90 1023.5
20260904044422 67 112 6.0 9.0 0.00 0.00 0.00 90 1023.7
20260904043423 67 118 3.0 5.0 0.00 0.00 0.00 90 1023.6
20260904042520 67 115 4.0 8.0 0.00 0.00 0.00 91 1023.7
20260904042424 67 112 5.0 8.0 0.00 0.00 0.00 91 1023.7
20260904042320 67 112 7.0 13.0 0.00 0.00 0.00 91 1023.5
20260904041321 67 120 5.0 11.0 0.00 0.00 0.00 91 1023.6
20260904040420 67 117 4.0 6.0 0.00 0.00 0.00 91 1023.6
20260904035423 67 114 6.0 10.0 0.00 0.00 0.00 91 1023.8
20260904034422 67 120 6.0 12.0 0.00 0.00 0.00 91 1023.9
20260904033423 67 116 6.0 10.0 0.00 0.00 0.00 91 1024.1
20260904032520 67 113 4.0 10.0 0.00 0.00 0.00 91 1024.2
20260904031522 67 119 7.0 13.0 0.00 0.00 0.00 91 1024.1
20260904030521 67 115 8.0 13.0 0.00 0.00 0.00 92 1024.2
20260904025521 67 119 5.0 8.0 0.00 0.00 0.00 92 1024.2
20260904024438 67 113 5.0 8.0 0.00 0.00 0.00 92 1024.4
20260904023522 67 121 6.0 11.0 0.00 0.00 0.00 91 1024.5
20260904022620 67 112 5.0 8.0 0.00 0.00 0.00 91 1024.6
20260904021621 67 116 4.0 7.0 0.00 0.00 0.00 91 1024.7
20260904020620 67 113 9.0 14.0 0.00 0.00 0.00 91 1024.7
20260904020520 67 126 6.0 11.0 0.00 0.00 0.00 91 1024.9
20260904015522 67 122 6.0 10.0 0.00 0.00 0.00 91 1025.0
20260904013623 67 124 6.0 11.0 0.00 0.00 0.00 92 1025.3
20260904012623 67 115 4.0 9.0 0.00 0.00 0.00 92 1025.2
20260904011621 67 117 7.0 12.0 0.00 0.00 0.00 92 1025.4
20260904010623 67 129 6.0 11.0 0.00 0.00 0.00 92 1025.4
20260904005621 67 120 7.0 11.0 0.00 0.00 0.00 92 1025.4
20260904004622 68 129 5.0 8.0 0.00 0.00 0.00 92 1025.4
20260904003620 67 126 4.0 7.0 0.00 0.00 0.00 92 1025.5
20260904002621 67 124 5.0 8.0 0.00 0.00 0.00 92 1025.6
20260904001621 67 119 4.0 8.0 0.00 0.00 0.00 93 1025.6
20260904000622 67 135 4.0 8.0 0.00 0.00 0.00 93 1025.9
20260903235722 67 127 2.0 4.0 0.00 0.00 0.00 93 1026.2
20260903233722 66 122 4.0 7.0 0.00 0.00 0.00 94 1026.3
20260903232820 66 120 6.0 12.0 0.00 0.00 0.00 93 1026.1
20260903232721 66 115 6.0 10.0 0.00 0.00 0.00 93 1026.2
20260903231722 66 142 7.0 12.0 0.00 0.00 0.00 93 1026.4
20260903230722 66 125 4.0 7.0 0.00 0.00 0.00 93 1026.5
20260903225722 66 134 2.0 6.0 0.00 0.00 0.00 93 1026.5
20260903224820 66 146 5.0 11.0 0.00 0.00 0.00 92 1026.7
20260903223821 66 114 2.0 6.0 0.00 0.00 0.00 92 1026.6
20260903222823 66 136 5.0 11.0 0.00 0.00 0.00 92 1026.7
20260903221921 66 132 3.0 7.0 0.00 0.00 0.00 91 1026.8
20260903220924 67 126 5.0 7.0 0.00 0.00 0.00 91 1027.0
20260903215020 67 129 5.0 8.0 0.00 0.00 0.00 91 1027.0
20260903214921 67 128 4.0 8.0 0.00 0.00 0.00 91 1027.1
20260903214020 66 129 6.0 11.0 0.00 0.00 0.00 90 1027.2
20260903213022 66 135 2.0 5.0 0.00 0.00 0.00 90 1027.4